This demonstration page uses our WeatherBlox Daily Observations layout. Learn more.

Left ArrowRight Arrow

Hourly Observations for March 7, 2021

Temp ( °F °C ) Dew Point ( °F °C ) Humidity (%) Winds ( mph kmh ) Pressure ( in mb ) Visibility ( mi km ) Precip ( " mm )
12:15 am 00:15 Clear 47 8.1 34 1.3 63 63 S 14 22 30.06 1018 10 16 N/A
12:35 am 00:35 Clear 46 7.8 35 1.5 65 65 S 13 20 30.06 1018 10 16 N/A
12:55 am 00:55 Clear 46 7.6 35 1.5 66 66 S 12 19 30.06 1018 10 16 N/A
1:15 am 01:15 Clear 45 7 35 1.5 68 68 S 12 19 30.07 1018 10 16 N/A
1:35 am 01:35 Clear 45 7 35 1.5 68 68 S 9 15 30.07 1018 10 16 N/A
1:55 am 01:55 Clear 44 6.6 35 1.5 70 70 S 10 17 30.07 1018 10 16 N/A
2:15 am 02:15 Clear 43 6.3 35 1.4 71 71 S 9 15 30.07 1018 10 16 N/A
2:35 am 02:35 Clear 43 6.2 35 1.4 72 72 S 10 17 30.06 1018 10 16 N/A
2:55 am 02:55 Clear 43 6.1 35 1.4 72 72 S 10 17 30.06 1018 10 16 N/A
3:15 am 03:15 Clear 43 6.1 34 1.2 71 71 S 8 13 30.06 1018 10 16 N/A
3:35 am 03:35 Clear 43 6.2 34 1.2 71 71 S 9 15 30.05 1018 10 16 N/A
3:55 am 03:55 Clear 43 6.2 34 1.2 71 71 S 10 17 30.05 1018 10 16 N/A
4:15 am 04:15 Clear 44 6.8 34 1.3 68 68 S 12 19 30.03 1017 10 16 N/A
4:35 am 04:35 Clear 44 6.8 34 1.3 68 68 S 13 20 30.03 1017 10 16 N/A
4:55 am 04:55 Clear 45 7 34 1.3 67 67 S 15 24 30.03 1017 10 16 N/A
5:15 am 05:15 Clear 44 6.9 34 1.3 68 68 S 14 22 30.04 1017 10 16 N/A
5:35 am 05:35 Clear 44 6.5 34 1.3 70 70 S 13 20 30.05 1018 10 16 N/A
5:55 am 05:55 Clear 43 6.2 34 1.2 71 71 S 10 17 30.06 1018 10 16 N/A
6:15 am 06:15 Clear 42 5.6 34 1 73 73 S 12 19 30.06 1018 10 16 N/A
6:35 am 06:35 Clear 42 5.7 34 1.2 73 73 S 10 17 30.08 1019 10 16 N/A
6:55 am 06:55 Clear 40 4.7 34 1 77 77 S 12 19 30.07 1018 10 16 N/A
7:15 am 07:15 Sunny 40 4.2 34 1 80 80 S 10 17 30.08 1018 10 16 N/A
7:35 am 07:35 Sunny 42 5.4 35 1.4 76 76 S 9 15 30.08 1019 10 16 N/A
7:55 am 07:55 Sunny 43 5.9 35 1.5 74 74 S 9 15 30.08 1019 10 16 N/A
8:15 am 08:15 Sunny 44 6.8 36 2 72 72 S 13 20 30.07 1018 10 16 N/A
8:35 am 08:35 Sunny 46 7.7 36 2.1 68 68 S 13 20 30.07 1018 10 16 N/A
8:55 am 08:55 Sunny 48 9.1 36 2.1 62 62 S 20 31 30.06 1018 10 16 N/A
9:15 am 09:15 Sunny 50 9.8 36 2 59 59 SSW 23 37 30.05 1018 10 16 N/A
9:35 am 09:35 Sunny 52 11 35 1.9 54 54 SSW 20 31 30.04 1017 10 16 N/A
9:55 am 09:55 Sunny 53 11.5 35 1.4 50 50 SSW 22 35 30.04 1017 10 16 N/A
10:15 am 10:15 Sunny 54 12 34 1.3 48 48 SSW 21 33 30.04 1017 10 16 N/A
10:35 am 10:35 Sunny 55 12.7 34 1.3 46 46 SW 16 26 30.04 1017 10 16 N/A
10:55 am 10:55 Sunny 56 13.4 34 1.1 43 43 SSW 16 26 30.03 1017 10 16 N/A
11:15 am 11:15 Sunny 57 14 34 1 41 41 SSW 18 30 30.04 1017 10 16 N/A
11:35 am 11:35 Sunny 59 14.9 33 0.8 39 39 SSW 15 24 30.03 1017 10 16 N/A
11:55 am 11:55 Sunny 59 15 33 0.5 37 37 SSW 15 24 30.03 1017 10 16 N/A
12:15 pm 12:15 Sunny 61 15.9 33 0.7 36 36 SW 15 24 30.02 1017 10 16 N/A
12:35 pm 12:35 Sunny 62 16.5 34 0.9 35 35 SSW 13 20 30.02 1016 10 16 N/A
12:55 pm 12:55 Sunny 63 17.3 34 1 33 33 SW 15 24 30.00 1016 10 16 N/A
1:15 pm 13:15 Sunny 64 17.5 33 0.6 32 32 S 15 24 29.99 1016 10 16 N/A
1:35 pm 13:35 Sunny 64 17.9 33 0.5 31 31 SSW 12 19 29.98 1015 10 16 N/A
1:55 pm 13:55 Sunny 65 18.5 33 0.5 30 30 SSW 10 17 29.98 1015 10 16 N/A
2:15 pm 14:15 Sunny 66 19 33 0.4 29 29 SSW 12 19 29.97 1015 10 16 N/A
2:35 pm 14:35 Sunny 67 19.6 33 0.6 28 28 SW 10 17 29.96 1015 10 16 N/A
2:55 pm 14:55 Sunny 68 19.8 33 0.4 27 27 SSW 12 19 29.96 1015 10 16 N/A
3:15 pm 15:15 Sunny 68 19.9 33 0.3 27 27 SSW 12 19 29.96 1014 10 16 N/A
3:35 pm 15:35 Sunny 68 20 32 0.2 27 27 SSW 12 19 29.96 1014 10 16 N/A
3:55 pm 15:55 Sunny 69 20.3 33 0.4 27 27 SSW 13 20 29.95 1014 10 16 N/A
4:15 pm 16:15 Sunny 69 20.8 32 undefined 25 25 SSW 8 13 29.95 1014 10 16 N/A
4:35 pm 16:35 Sunny 69 20.7 32 undefined 25 25 SSW 9 15 29.95 1014 10 16 N/A
4:55 pm 16:55 Sunny 69 20.3 32 0.1 26 26 SW 9 15 29.96 1015 10 16 N/A
5:15 pm 17:15 Sunny 69 20.5 32 undefined 25 25 SSW 8 13 29.95 1014 10 16 N/A
5:35 pm 17:35 Sunny 67 19.3 32 undefined 27 27 SSW 7 11 29.97 1015 10 16 N/A
5:55 pm 17:55 Sunny 65 18.2 32 0.1 30 30 SW 5 7 29.99 1016 10 16 N/A
6:15 pm 18:15 Sunny 63 17 32 undefined 32 32 N N/A 30.00 1016 10 16 N/A
6:35 pm 18:35 Sunny 62 16.6 32 undefined 33 33 N N/A 30.01 1016 10 16 N/A
6:55 pm 18:55 Clear 61 16.2 32 undefined 33 33 SSW 3 6 30.02 1017 10 16 N/A
7:15 pm 19:15 Clear 60 15.6 32 undefined 35 35 SSW 5 7 30.02 1017 10 16 N/A
7:35 pm 19:35 Clear 56 13.6 32 undefined 40 40 N N/A 30.04 1017 10 16 N/A
7:55 pm 19:55 Clear 51 10.8 33 0.7 50 50 SSE 3 6 30.07 1018 10 16 N/A
8:15 pm 20:15 Clear 50 10.2 33 0.4 51 51 SSE 3 6 30.08 1019 10 16 N/A
8:35 pm 20:35 Clear 52 11.1 33 0.5 48 48 S 6 9 30.08 1019 10 16 N/A
8:55 pm 20:55 Clear 52 11 32 0.2 48 48 S 5 7 30.08 1019 10 16 N/A
9:15 pm 21:15 Clear 51 10.5 33 0.5 50 50 S 6 9 30.10 1019 10 16 N/A
9:35 pm 21:35 Clear 48 8.9 33 0.8 57 57 S 6 9 30.11 1020 10 16 N/A
9:55 pm 21:55 Clear 48 8.7 34 1.2 60 60 S 7 11 30.12 1020 10 16 N/A
10:15 pm 22:15 Clear 47 8.6 35 1.5 61 61 S 7 11 30.14 1020 10 16 N/A
10:35 pm 22:35 Clear 48 9.1 36 2 61 61 S 3 6 30.13 1020 10 16 N/A
10:55 pm 22:55 Clear 48 9.1 36 2.2 62 62 S 6 9 30.14 1021 10 16 N/A
11:15 pm 23:15 Clear 49 9.2 36 2.3 62 62 S 8 13 30.14 1021 10 16 N/A
11:35 pm 23:35 Clear 47 8.6 36 2 64 64 S 7 11 30.15 1021 10 16 N/A
11:55 pm 23:55 Clear 46 7.6 36 2.1 68 68 S 6 9 30.15 1021 10 16 N/A

Powered by AerisWeather